{"data":{"norad_id":65401,"epoch":"2026-09-20T13:47:08.733696Z","epoch_age_seconds":108401,"freshness":"FRESH","line1":"1 65401U 25191Y   26263.57440664  .00011432  00000+0  35572-3 0  9994","line2":"2 65401  97.2856 129.6523 0002101  95.6565 264.4917 15.33459224 59660","mean_motion":15.33459224,"eccentricity":0.0002101,"inclination_deg":97.2856,"raan_deg":129.6523,"arg_perigee_deg":95.6565,"mean_anomaly_deg":264.4917,"bstar":0.00035572,"rev_number":5966,"period_min":93.905333605401,"perigee_km":464.06300587553,"apogee_km":466.93870250186,"semimajor_km":6843.6378541887,"source":"CELESTRAK","updated_at":"2026-09-21T09:00:35.601835Z"}}